STARLINK-5017 (53915 NORAD) Tracking and Keplerian Element Data

This shows tracking and keplerian element data for the satellite.

Feedback or suggestion? Click here.




ElementValue
Catalog53915
NameSTARLINK-5017
Epoch Orbit130
Epoch Day324.91667824
Epoch Year2022
RAAN331.1492
Inclination53.2129
Eccentricity0.0003989
Argument of Perigee2.7479
Mean Anonmoly9.6699
Mean Motion15.73166501
Decay Rate0.00039385
L11 53915U 22119AF 22324.91667824 .00039385 00000+0 28404-3 0 9992
L22 53915 53.2129 331.1492 0003989 2.7479 9.6699 15.73166501 1306



Live tracking and technical data element details for STARLINK-5017 (NORAD 53915). STARLINK-5017 can be tracked NOW for your location showing map with azimuth and elevation plus other details from your city location.







IsCatalogInMostPopularTable: catalog: 53915, numindb: 1
Update: records affected: 1



GetName: 53915 STARLINK-5017

Hit Count: updated at: Mon, 28 Nov 2022 22:41:24 GMT